Change the Weather History Date:

Friday, December 27, 2013

  Actual Average Record
Temperature  
Mean Temperature 30 °F 11 °F  
Max Temperature 40 °F 21 °F 47 °F (1980)
Min Temperature 19 °F 2 °F -29 °F (1960)
Degree Days  
Heating Degree Days 35 54  
Month to date heating degree days 1592 1360  
Since 1 July heating degree days 3600 3444  
Cooling Degree Days 0 0  
Month to date cooling degree days 0 0  
Year to date cooling degree days 521 446  
Moisture  
Dew Point 26 °F    
Average Humidity 88    
Maximum Humidity 100    
Minimum Humidity 75    
Precipitation  
Precipitation 0.00 in 0.01 in 0.09 in (2003)
Month to date precipitation 0.24 0.34  
Year to date precipitation 16.11 18.71  
Sea Level Pressure  
Sea Level Pressure 29.91 in    
Wind  
Wind Speed 12 mph (SW)    
Max Wind Speed 25 mph    
Max Gust Speed 32 mph    
Visibility 8 miles    
Events Fog    
T = Trace of Precipitation, MM = Missing Value Source: NWS Daily Summary

Daily Weather History Graph

Daily Weather History Graph

Search for Another Location

Airport or City:

Trip Planner

Search our weather history database for the weather conditions in past years. The results will help you decide how hot, cold, wet, or windy it might be!

Date:

Astronomy

Dec. 27, 2013 Rise Set
Actual Time 8:19 AM CST 4:52 PM CST
Civil Twilight 7:44 AM CST 5:27 PM CST
Nautical Twilight 7:05 AM CST 6:06 PM CST
Astronomical Twilight 6:28 AM CST 6:43 PM CST
Moon 2:40 AM CST (12/27) 1:15 PM CST (12/27)
Length of Visible Light 9h 43m
Length of Day
8h 32m
Waning Crescent, 28% of the Moon is Illuminated
Dec 27
Waning Crescent
Jan 1
New
Jan 7
First Quarter
Jan 15
Full
Jan 23
Last Quarter

Hourly Weather History & Observations

Time (CST) Temp. Windchill Dew Point Humidity Pressure Visibility Wind Dir Wind Speed Gust Speed Precip Events Conditions
12:56 AM 19.9 °F 7.3 °F 16.0 °F 85% 30.01 in 10.0 mi South 12.7 mph - N/A   Clear
1:56 AM 19.9 °F 6.7 °F 18.0 °F 92% 29.96 in 10.0 mi South 13.8 mph - N/A   Clear
2:56 AM 23.0 °F 10.6 °F 19.9 °F 88% 29.93 in 10.0 mi South 13.8 mph - N/A   Scattered Clouds
3:56 AM 30.0 °F 19.1 °F 25.0 °F 82% 29.89 in 10.0 mi SSW 15.0 mph - N/A   Overcast
4:56 AM 34.0 °F 24.2 °F 27.0 °F 75% 29.86 in 10.0 mi SW 15.0 mph - N/A   Overcast
5:56 AM 36.0 °F 25.0 °F 28.0 °F 73% 29.82 in 10.0 mi WSW 20.7 mph 32.2 mph N/A   Clear
6:56 AM 35.1 °F 24.1 °F 28.0 °F 76% 29.83 in 10.0 mi WSW 19.6 mph - N/A   Clear
7:56 AM 36.0 °F 26.7 °F 30.0 °F 79% 29.85 in 10.0 mi West 15.0 mph - N/A   Clear
8:56 AM 36.0 °F 25.3 °F 30.0 °F 79% 29.87 in 10.0 mi WNW 19.6 mph - N/A   Clear
9:56 AM 37.9 °F 27.3 °F 30.9 °F 76% 29.90 in 10.0 mi WNW 21.9 mph - N/A   Clear
10:56 AM 39.0 °F 29.0 °F 32.0 °F 76% 29.94 in 10.0 mi WNW 20.7 mph - N/A   Clear
11:56 AM 39.9 °F 31.1 °F 33.1 °F 77% 29.94 in 10.0 mi NW 17.3 mph - N/A   Clear
12:56 PM 39.9 °F 31.4 °F 33.1 °F 77% 29.96 in 10.0 mi WNW 16.1 mph - N/A   Clear
1:56 PM 37.9 °F 29.6 °F 33.1 °F 83% 29.96 in 10.0 mi WNW 13.8 mph - N/A   Clear
2:56 PM 37.9 °F 30.5 °F 33.1 °F 83% 29.96 in 10.0 mi West 11.5 mph - N/A   Clear
3:56 PM 37.0 °F 30.4 °F 33.1 °F 86% 29.96 in 10.0 mi WNW 9.2 mph - N/A   Clear
4:56 PM 36.0 °F 29.0 °F 32.0 °F 86% 29.98 in 10.0 mi WNW 9.2 mph - N/A   Clear
5:56 PM 34.0 °F 31.0 °F 30.9 °F 89% 29.97 in 10.0 mi WNW 3.5 mph - N/A   Clear
6:56 PM 28.9 °F 23.9 °F 27.0 °F 92% 29.97 in 10.0 mi SSW 4.6 mph - N/A   Clear
7:56 PM 27.0 °F 20.5 °F 26.1 °F 96% 29.95 in 10.0 mi ESE 5.8 mph - N/A   Clear
8:56 PM 25.0 °F 17.1 °F 23.0 °F 92% 29.93 in 9.0 mi SSE 6.9 mph - N/A   Clear
9:56 PM 24.1 °F - 21.9 °F 91% 29.93 in 1.0 mi Calm Calm - N/A   Clear
10:03 PM 24.1 °F 17.0 °F 21.9 °F 91% 29.87 in 0.2 mi SE 5.8 mph - N/A Fog Light Freezing Fog
10:13 PM 23.0 °F 15.8 °F 21.9 °F 96% 29.86 in 0.8 mi SE 5.8 mph - N/A   Clear
10:19 PM 21.9 °F 15.7 °F 19.9 °F 92% 29.85 in 2.0 mi ESE 4.6 mph - N/A   Clear
10:28 PM 21.0 °F 12.4 °F 18.0 °F 88% 29.84 in 6.0 mi SE 6.9 mph - N/A   Clear
10:56 PM 23.0 °F 15.8 °F 21.0 °F 92% 29.88 in 8.0 mi SSE 5.8 mph - N/A   Clear
11:56 PM 21.9 °F 14.5 °F 21.0 °F 96% 29.87 in 6.0 mi South 5.8 mph - N/A   Clear